Find A-SEANSAT-PG1

NORAD ID: 57197 Int'l Des: 2023-091 Owner: ANGKX Country: MY operational
LEOCIRCULARRETROGRADESSO

リアルタイム位置

3D地球を読み込み中...

A-SEANSAT-PG1について

説明を読み込み中...

次回通過

Passes for default location (London). Set your location on the main map for personalized predictions.

高度履歴

Loading altitude history...

軌道要素

1 57197U 23091AH 26104.94288562 .00009761 00000-0 29113-3 0 9993
2 57197 97.5129 173.2700 0006040 308.0399 52.0298 15.34845643155006
Epoch: Apr 14, 2026 • Age: 7 hours

現在のステータス

高度 467.0 km
速度 7.63 km/s
衛星直下点 -1.07°S, 64.91°E
打ち上げ日 Jun 27, 2023
運用期間 2.8 years
タイプ other

技術仕様

分類 Payload
質量 10.00 kg
乾燥質量 10.00 kg
総質量 10.00 kg
長さ 0.30 m
直径 0.20 m
スパン 0.30 m
形状 Box
製造者 ANGKX
バスタイプ Cubesat 6U
フェーズステータス In Orbit
所有者/国 ANGKX/MY

Most Searched